Stündliche Wetter Holonki

Heute, 25 Juni, Freitag

Zeit Temperatur Niederschläge Wind Luftdruck Luftfeuchtigkeit
00:00 +20°C° 1.6 mm 4 m/S 748 mmHg 92%
01:00 +20°C° 1.6 mm 3 m/S 747 mmHg 91%
02:00 +19°C° 1.6 mm 2 m/S 747 mmHg 90%
03:00 +19°C° 0 mm 2 m/S 747 mmHg 91%
04:00 +19°C° 0 mm 2 m/S 747 mmHg 92%
05:00 +19°C° 0 mm 2 m/S 748 mmHg 94%
06:00 +20°C° 0 mm 2 m/S 747 mmHg 91%
07:00 +21°C° 0 mm 2 m/S 747 mmHg 88%
08:00 +23°C° 0 mm 1 m/S 747 mmHg 85%
09:00 +24°C° 0 mm 1 m/S 747 mmHg 80%
10:00 +25°C° 0 mm 1 m/S 747 mmHg 76%
11:00 +26°C° 0 mm 1 m/S 747 mmHg 71%
12:00 +27°C° 0 mm 1 m/S 747 mmHg 69%
13:00 +28°C° 0 mm 1 m/S 747 mmHg 67%
14:00 +28°C° 0 mm 1 m/S 747 mmHg 65%
15:00 +27°C° 0.1 mm 2 m/S 746 mmHg 70%
16:00 +26°C° 0.1 mm 4 m/S 746 mmHg 74%
17:00 +26°C° 0.1 mm 5 m/S 746 mmHg 79%
18:00 +23°C° 0.4 mm 4 m/S 746 mmHg 83%
19:00 +22°C° 0.4 mm 4 m/S 747 mmHg 87%
20:00 +21°C° 0.4 mm 4 m/S 747 mmHg 91%
21:00 +20°C° 0.1 mm 4 m/S 748 mmHg 92%
22:00 +19°C° 0.1 mm 4 m/S 748 mmHg 93%
23:00 +18°C° 0.1 mm 4 m/S 748 mmHg 94%

Morgen, 26 Juni, Samstag

Zeit Temperatur Niederschläge Wind Luftdruck Luftfeuchtigkeit
00:00 +18°C° 0 mm 4 m/S 748 mmHg 93%
01:00 +17°C° 0 mm 3 m/S 749 mmHg 93%
02:00 +17°C° 0 mm 3 m/S 749 mmHg 93%
03:00 +16°C° 0 mm 3 m/S 749 mmHg 93%
04:00 +16°C° 0 mm 3 m/S 749 mmHg 92%
05:00 +14°C° 0 mm 3 m/S 749 mmHg 92%
06:00 +16°C° 0 mm 3 m/S 749 mmHg 86%
07:00 +17°C° 0 mm 3 m/S 750 mmHg 80%
08:00 +18°C° 0 mm 3 m/S 750 mmHg 73%
09:00 +19°C° 0 mm 3 m/S 750 mmHg 69%
10:00 +21°C° 0 mm 3 m/S 751 mmHg 65%
11:00 +22°C° 0 mm 3 m/S 751 mmHg 61%
12:00 +24°C° 0 mm 3 m/S 750 mmHg 59%
13:00 +25°C° 0 mm 3 m/S 750 mmHg 57%
14:00 +25°C° 0 mm 4 m/S 750 mmHg 55%
15:00 +25°C° 0 mm 3 m/S 750 mmHg 56%
16:00 +25°C° 0 mm 3 m/S 750 mmHg 56%
17:00 +25°C° 0 mm 3 m/S 750 mmHg 57%
18:00 +24°C° 0 mm 3 m/S 750 mmHg 61%
19:00 +23°C° 0 mm 2 m/S 749 mmHg 66%
20:00 +21°C° 0 mm 2 m/S 749 mmHg 71%
21:00 +20°C° 0 mm 2 m/S 750 mmHg 75%
22:00 +18°C° 0 mm 2 m/S 750 mmHg 79%
23:00 +17°C° 0 mm 2 m/S 750 mmHg 82%

übermorgen, 27 Juni, Sonntag

Zeit Temperatur Niederschläge Wind Luftdruck Luftfeuchtigkeit
00:00 +17°C° 0 mm 2 m/S 750 mmHg 85%
01:00 +16°C° 0 mm 2 m/S 750 mmHg 88%
02:00 +16°C° 0 mm 2 m/S 750 mmHg 90%
03:00 +16°C° 0 mm 2 m/S 751 mmHg 91%
04:00 +15°C° 0 mm 2 m/S 751 mmHg 92%
05:00 +15°C° 0 mm 2 m/S 751 mmHg 92%
06:00 +17°C° 0 mm 2 m/S 751 mmHg 86%
07:00 +19°C° 0 mm 2 m/S 751 mmHg 81%
08:00 +21°C° 0 mm 1 m/S 751 mmHg 75%
09:00 +21°C° 0 mm 2 m/S 751 mmHg 69%
10:00 +23°C° 0 mm 2 m/S 751 mmHg 64%
11:00 +25°C° 0 mm 2 m/S 751 mmHg 58%
12:00 +25°C° 0 mm 2 m/S 751 mmHg 56%
13:00 +25°C° 0 mm 2 m/S 751 mmHg 54%
14:00 +26°C° 0 mm 2 m/S 751 mmHg 52%
15:00 +26°C° 0 mm 2 m/S 751 mmHg 54%
16:00 +25°C° 0 mm 1 m/S 751 mmHg 57%
17:00 +25°C° 0 mm 1 m/S 751 mmHg 59%
18:00 +24°C° 0 mm 1 m/S 751 mmHg 62%
19:00 +23°C° 0 mm 1 m/S 750 mmHg 65%
20:00 +21°C° 0 mm 0 m/S 750 mmHg 69%
21:00 +22°C° 0 mm 1 m/S 750 mmHg 71%
22:00 +20°C° 0 mm 1 m/S 751 mmHg 73%
23:00 +19°C° 0 mm 1 m/S 751 mmHg 75%

28 Juni, Montag

Zeit Temperatur Niederschläge Wind Luftdruck Luftfeuchtigkeit
00:00 +19°C° 0 mm 1 m/S 751 mmHg 78%
01:00 +18°C° 0 mm 1 m/S 751 mmHg 81%
02:00 +16°C° 0 mm 1 m/S 751 mmHg 84%
03:00 +16°C° 0 mm 1 m/S 751 mmHg 84%
04:00 +15°C° 0 mm 1 m/S 751 mmHg 84%
05:00 +15°C° 0 mm 1 m/S 751 mmHg 84%
06:00 +18°C° 0 mm 1 m/S 751 mmHg 78%
07:00 +20°C° 0 mm 1 m/S 751 mmHg 72%
08:00 +21°C° 0 mm 1 m/S 751 mmHg 66%
09:00 +23°C° 0 mm 1 m/S 751 mmHg 62%
10:00 +24°C° 0 mm 1 m/S 751 mmHg 57%
11:00 +25°C° 0 mm 2 m/S 751 mmHg 52%
12:00 +26°C° 0 mm 2 m/S 751 mmHg 50%
13:00 +26°C° 0 mm 2 m/S 751 mmHg 49%
14:00 +27°C° 0 mm 2 m/S 751 mmHg 47%
15:00 +27°C° 0 mm 2 m/S 751 mmHg 50%
16:00 +26°C° 0 mm 2 m/S 751 mmHg 53%
17:00 +26°C° 0 mm 2 m/S 750 mmHg 55%
18:00 +25°C° 0 mm 1 m/S 750 mmHg 59%
19:00 +24°C° 0 mm 1 m/S 750 mmHg 62%
20:00 +23°C° 0 mm 1 m/S 750 mmHg 65%
21:00 +22°C° 0 mm 1 m/S 750 mmHg 68%
22:00 +21°C° 0 mm 1 m/S 750 mmHg 71%
23:00 +19°C° 0 mm 1 m/S 750 mmHg 74%

29 Juni, Dienstag

Zeit Temperatur Niederschläge Wind Luftdruck Luftfeuchtigkeit
00:00 +19°C° 0 mm 1 m/S 750 mmHg 76%
01:00 +18°C° 0 mm 1 m/S 750 mmHg 79%
02:00 +18°C° 0 mm 1 m/S 749 mmHg 81%
03:00 +18°C° 0 mm 1 m/S 749 mmHg 81%
04:00 +16°C° 0 mm 0 m/S 749 mmHg 81%
05:00 +16°C° 0 mm 0 m/S 749 mmHg 82%
06:00 +17°C° 0 mm 0 m/S 749 mmHg 76%
07:00 +19°C° 0 mm 0 m/S 749 mmHg 71%
08:00 +21°C° 0 mm 0 m/S 749 mmHg 66%
09:00 +24°C° 0 mm 1 m/S 749 mmHg 60%
10:00 +26°C° 0 mm 1 m/S 749 mmHg 55%
11:00 +27°C° 0 mm 1 m/S 749 mmHg 50%
12:00 +28°C° 0 mm 1 m/S 749 mmHg 48%
13:00 +28°C° 0 mm 1 m/S 748 mmHg 46%
14:00 +29°C° 0 mm 1 m/S 748 mmHg 43%
15:00 +29°C° 0 mm 1 m/S 748 mmHg 44%
16:00 +29°C° 0 mm 1 m/S 748 mmHg 44%
17:00 +29°C° 0 mm 1 m/S 747 mmHg 44%
18:00 +27°C° 0 mm 1 m/S 747 mmHg 50%
19:00 +26°C° 0 mm 1 m/S 747 mmHg 57%
20:00 +24°C° 0 mm 2 m/S 746 mmHg 63%
21:00 +23°C° 0 mm 2 m/S 746 mmHg 65%
22:00 +21°C° 0 mm 3 m/S 746 mmHg 67%
23:00 +20°C° 0 mm 3 m/S 746 mmHg 69%

30 Juni, Mittwoch

Zeit Temperatur Niederschläge Wind Luftdruck Luftfeuchtigkeit
00:00 +19°C° 0 mm 3 m/S 746 mmHg 72%
01:00 +19°C° 0 mm 3 m/S 745 mmHg 75%
02:00 +18°C° 0 mm 3 m/S 745 mmHg 77%
03:00 +18°C° 0 mm 3 m/S 745 mmHg 78%
04:00 +18°C° 0 mm 4 m/S 745 mmHg 79%
05:00 +18°C° 0 mm 4 m/S 745 mmHg 79%
06:00 +20°C° 0 mm 4 m/S 744 mmHg 74%
07:00 +22°C° 0 mm 5 m/S 744 mmHg 69%
08:00 +23°C° 0 mm 6 m/S 744 mmHg 64%
09:00 +26°C° 0 mm 6 m/S 743 mmHg 61%
10:00 +27°C° 0 mm 6 m/S 743 mmHg 57%
11:00 +29°C° 0 mm 6 m/S 743 mmHg 54%
12:00 +30°C° 0 mm 6 m/S 742 mmHg 52%
13:00 +32°C° 0 mm 5 m/S 742 mmHg 51%
14:00 +33°C° 0 mm 4 m/S 742 mmHg 50%
15:00 +33°C° 0 mm 4 m/S 742 mmHg 51%
16:00 +33°C° 0 mm 4 m/S 741 mmHg 53%
17:00 +33°C° 0 mm 3 m/S 741 mmHg 54%
18:00 +29°C° 1.9 mm 4 m/S 741 mmHg 67%
19:00 +26°C° 1.9 mm 4 m/S 741 mmHg 80%
20:00 +22°C° 1.9 mm 5 m/S 742 mmHg 93%
21:00 +21°C° 1.3 mm 4 m/S 742 mmHg 94%
22:00 +20°C° 1.3 mm 4 m/S 742 mmHg 95%
23:00 +19°C° 1.3 mm 4 m/S 743 mmHg 96%
Mehr zeigen

Wir brauchen deine Erlaubnis

Meteoprog und unser Service Anbieter werden persönliche Daten aufbewahren, so wie Cookies, Geräte Bezeichnung oder ähnliche Technologien von deinem Gerät und Prozess, so wie Persönliche Daten Inhalte und Werbungen, genauso wie social Media und den Verkehr zu analysieren.

  • Aufbewahrung und/oder Zugang zu deiner Geräte Informationen.

    Cookies, Geräte Bezeichnung oder andere Informationen, können aufbewahrt oder Zugang zu deinem Gerät erhalten, für den Grund, der oben angegeben wird.

  • Personalisierte Werbung und Inhalte, Messungen, Einblick in das Publikum und Produkt Entwicklung.

    Werbungen und Inhalte können personalisiert werden, basierend auf ein Profil. Mehr Daten können besser personalisierte Werbungen und Inhalte hinzufügen. Werbung und Inhalte können gezeigt und gemessen werden. Einblicke über das Publikum, welche die Werbung gesehen haben und den Inhalt, können abgeleitet werden. So wie Daten können genutzt werden, um es zu verbessern oder die Benutzer Erfahrung zu verbessern das System und die Software.

Wenn du “Ich stimme zu” klickst, erlaubst du uns, die Cookies zu benutzen die Geräte Bezeichnung, den Web oder ähnliche Technologien zu benutzen. Deine Settings, können in deinem Gerät bei deinem Browser geändert werden.

Für den bestimmten Zweck, berechtigten Interessen beruhen darauf, mehr als auf den Inhalt. Du kannst mehr darüber in unseren Privaten und Cookie Politik lesen.